Station Historical Data
Daily Summary for January 11, 2019 Units:  English    Metric   Both
« Previous Day
Next Day »
Daily Weekly Monthly Yearly Custom
  High: Low: Average:
Temperature: TemperatureF °F 22.3 °F 34.5 °F
Dew Point: DewpointF °F 18.7 °F 23.9 °F
Humidity: Humidity % 44 % 67 %
Wind Speed: WindSpeedMPH mph 0.0 mph 0.8 mph
Wind Gust: WindSpeedGustMPH mph - -
Wind:- - South
Pressure: PressureIn in 30.23 in -
Precipitation: 0.02 in    
Historical Graphs
 
 
Tabular Data for January 11, 2019
Time Temperature Dew Point Pressure Wind Wind Speed Wind Gust Humidity Rainfall Rate (Hourly) solar Conditions
TemperatureF °F DewpointF °F PressureIn in Calm     Humidity % HourlyPrecipIn in SolarRadiationWatts/m^2 W/m2 Conditions
00:04 26.8 °F 19.9 °F 30.36 in Calm     75 % 0.00 in 0.00 W/m2 CLR
00:09 26.7 °F 19.8 °F 30.36 in Calm     75 % 0.00 in 0.00 W/m2 CLR
00:14 26.6 °F 19.7 °F 30.36 in Calm     75 % 0.00 in 0.00 W/m2 CLR
00:19 26.6 °F 19.7 °F 30.36 in Calm     75 % 0.00 in 0.00 W/m2 CLR
00:24 26.6 °F 19.7 °F 30.36 in Calm     75 % 0.00 in 0.00 W/m2 CLR
00:29 26.5 °F 19.6 °F 30.36 in Calm     75 % 0.00 in 0.00 W/m2 CLR
00:34 26.4 °F 19.5 °F 30.36 in Calm     75 % 0.00 in 0.00 W/m2 CLR
00:39 26.3 °F 19.8 °F 30.36 in Calm     76 % 0.00 in 0.00 W/m2 CLR
00:44 26.3 °F 20.1 °F 30.36 in Calm     77 % 0.00 in 0.00 W/m2 CLR
00:49 26.2 °F 20.0 °F 30.36 in Calm     77 % 0.00 in 0.00 W/m2 CLR
00:54 26.1 °F 19.9 °F 30.37 in Calm     77 % 0.00 in 0.00 W/m2 CLR
00:59 26.0 °F 19.8 °F 30.36 in Calm     77 % 0.00 in 0.00 W/m2 CLR
01:04 26.0 °F 19.8 °F 30.37 in Calm     77 % 0.00 in 0.00 W/m2 CLR
01:09 25.9 °F 20.0 °F 30.37 in Calm     78 % 0.00 in 0.00 W/m2 CLR
01:14 25.8 °F 19.9 °F 30.37 in Calm     78 % 0.00 in 0.00 W/m2 CLR
01:19 25.7 °F 20.1 °F 30.37 in Calm     79 % 0.00 in 0.00 W/m2 CLR
01:24 25.6 °F 20.0 °F 30.37 in Calm     79 % 0.00 in 0.00 W/m2 CLR
01:29 25.4 °F 20.1 °F 30.37 in Calm     80 % 0.00 in 0.00 W/m2 CLR
01:34 25.2 °F 19.9 °F 30.37 in Calm     80 % 0.00 in 0.00 W/m2 CLR
01:39 25.1 °F 20.4 °F 30.36 in Calm     82 % 0.00 in 0.00 W/m2 CLR
01:44 24.8 °F 20.4 °F 30.36 in Calm     83 % 0.00 in 0.00 W/m2 CLR
01:49 24.5 °F 20.1 °F 30.37 in Calm     83 % 0.00 in 0.00 W/m2 CLR
01:54 24.1 °F 20.0 °F 30.36 in Calm     84 % 0.00 in 0.00 W/m2 CLR
01:59 23.9 °F 19.8 °F 30.36 in Calm     84 % 0.00 in 0.00 W/m2 CLR
02:04 23.7 °F 19.9 °F 30.36 in Calm     85 % 0.00 in 0.00 W/m2 CLR
02:09 23.5 °F 19.7 °F 30.36 in Calm     85 % 0.00 in 0.00 W/m2 CLR
02:14 23.3 °F 19.7 °F 30.36 in Calm     86 % 0.00 in 0.00 W/m2 CLR
02:19 23.1 °F 19.5 °F 30.36 in Calm     86 % 0.00 in 0.00 W/m2 CLR
02:24 23.0 °F 19.4 °F 30.36 in Calm     86 % 0.00 in 0.00 W/m2 CLR
02:29 23.0 °F 19.4 °F 30.36 in Calm     86 % 0.00 in 0.00 W/m2 CLR
02:34 22.9 °F 19.3 °F 30.36 in Calm     86 % 0.00 in 0.00 W/m2 CLR
02:39 22.9 °F 19.3 °F 30.36 in Calm     86 % 0.00 in 0.00 W/m2 CLR
02:44 22.9 °F 19.3 °F 30.36 in Calm     86 % 0.00 in 0.00 W/m2 CLR
02:49 22.9 °F 19.3 °F 30.36 in Calm     86 % 0.00 in 0.00 W/m2 CLR
02:54 22.9 °F 19.3 °F 30.36 in Calm     86 % 0.00 in 0.00 W/m2 CLR
02:59 22.8 °F 19.2 °F 30.35 in Calm     86 % 0.00 in 0.00 W/m2 CLR
03:04 22.7 °F 19.1 °F 30.35 in Calm     86 % 0.00 in 0.00 W/m2 CLR
03:09 22.7 °F 19.1 °F 30.35 in Calm     86 % 0.00 in 0.00 W/m2 CLR
03:14 22.7 °F 19.1 °F 30.35 in Calm     86 % 0.00 in 0.00 W/m2 CLR
03:19 22.7 °F 19.1 °F 30.35 in Calm     86 % 0.00 in 0.00 W/m2 CLR
03:24 22.7 °F 19.1 °F 30.35 in Calm     86 % 0.00 in 0.00 W/m2 CLR
03:29 22.8 °F 19.2 °F 30.34 in Calm     86 % 0.00 in 0.00 W/m2 CLR
03:34 22.9 °F 19.3 °F 30.34 in Calm     86 % 0.00 in 0.00 W/m2 CLR
03:39 23.1 °F 19.5 °F 30.34 in Calm     86 % 0.00 in 0.00 W/m2 CLR
03:44 23.2 °F 19.6 °F 30.34 in Calm     86 % 0.00 in 0.00 W/m2 CLR
03:49 23.3 °F 19.5 °F 30.34 in Calm     85 % 0.00 in 0.00 W/m2 CLR
03:54 23.3 °F 19.5 °F 30.34 in Calm     85 % 0.00 in 0.00 W/m2 CLR
03:59 23.3 °F 19.2 °F 30.34 in Calm     84 % 0.00 in 0.00 W/m2 CLR
04:04 23.4 °F 19.3 °F 30.34 in Calm     84 % 0.00 in 0.00 W/m2 CLR
04:09 23.4 °F 19.3 °F 30.34 in Calm     84 % 0.00 in 0.00 W/m2 CLR
04:14 23.4 °F 19.6 °F 30.34 in Calm     85 % 0.00 in 0.00 W/m2 CLR
04:19 23.4 °F 19.6 °F 30.34 in Calm     85 % 0.00 in 0.00 W/m2 CLR
04:24 23.3 °F 19.5 °F 30.34 in Calm     85 % 0.00 in 0.00 W/m2 CLR
04:29 23.3 °F 19.5 °F 30.34 in Calm     85 % 0.00 in 0.00 W/m2 CLR
04:34 23.3 °F 19.5 °F 30.34 in Calm     85 % 0.00 in 0.00 W/m2 CLR
04:39 23.2 °F 19.1 °F 30.35 in Calm     84 % 0.00 in 0.00 W/m2 CLR
04:44 23.2 °F 19.4 °F 30.35 in Calm     85 % 0.00 in 0.00 W/m2 CLR
04:49 23.2 °F 19.4 °F 30.35 in Calm     85 % 0.00 in 0.00 W/m2 CLR
04:54 23.2 °F 19.4 °F 30.36 in Calm     85 % 0.00 in 0.00 W/m2 CLR
04:59 23.4 °F 19.6 °F 30.36 in Calm     85 % 0.00 in 0.00 W/m2 CLR
05:04 23.4 °F 19.3 °F 30.36 in Calm     84 % 0.00 in 0.00 W/m2 CLR
05:09 23.4 °F 19.3 °F 30.35 in Calm     84 % 0.00 in 0.00 W/m2 CLR
05:14 23.4 °F 19.3 °F 30.35 in Calm     84 % 0.00 in 0.00 W/m2 CLR
05:19 23.4 °F 19.3 °F 30.35 in Calm     84 % 0.00 in 0.00 W/m2 CLR
05:24 23.5 °F 19.4 °F 30.35 in Calm     84 % 0.00 in 0.00 W/m2 CLR
05:29 23.5 °F 19.4 °F 30.35 in Calm     84 % 0.00 in 0.00 W/m2 CLR
05:34 23.6 °F 19.5 °F 30.36 in Calm     84 % 0.00 in 0.00 W/m2 CLR
05:39 23.5 °F 19.1 °F 30.36 in Calm     83 % 0.00 in 0.00 W/m2 CLR
05:44 23.5 °F 19.1 °F 30.36 in Calm     83 % 0.00 in 0.00 W/m2 CLR
05:49 23.5 °F 19.1 °F 30.36 in Calm     83 % 0.00 in 0.00 W/m2 CLR
05:54 23.5 °F 19.1 °F 30.35 in Calm     83 % 0.00 in 0.00 W/m2 CLR
05:59 23.5 °F 19.1 °F 30.35 in Calm     83 % 0.00 in 0.00 W/m2 CLR
06:04 23.4 °F 19.3 °F 30.36 in Calm     84 % 0.00 in 0.00 W/m2 CLR
06:09 23.3 °F 19.2 °F 30.36 in Calm     84 % 0.00 in 0.00 W/m2 CLR
06:14 22.9 °F 18.8 °F 30.35 in Calm     84 % 0.00 in 0.00 W/m2 CLR
06:19 22.6 °F 18.8 °F 30.35 in Calm     85 % 0.00 in 0.00 W/m2 CLR
06:24 22.5 °F 18.9 °F 30.36 in Calm     86 % 0.00 in 0.00 W/m2 CLR
06:29 22.4 °F 18.8 °F 30.36 in Calm     86 % 0.00 in 0.00 W/m2 CLR
06:34 22.3 °F 18.7 °F 30.36 in Calm     86 % 0.00 in 0.00 W/m2 CLR
06:39 22.3 °F 19.0 °F 30.36 in Calm     87 % 0.00 in 0.00 W/m2 CLR
06:44 22.3 °F 19.0 °F 30.36 in Calm     87 % 0.00 in 0.00 W/m2 CLR
06:49 22.3 °F 19.0 °F 30.36 in Calm     87 % 0.00 in 0.00 W/m2 CLR
06:54 22.4 °F 19.1 °F 30.36 in Calm     87 % 0.00 in 0.00 W/m2 CLR
06:59 22.4 °F 19.1 °F 30.36 in Calm     87 % 0.00 in 0.00 W/m2 CLR
07:04 22.5 °F 19.2 °F 30.36 in Calm     87 % 0.00 in 7.00 W/m2 CLR
07:09 22.5 °F 19.2 °F 30.36 in Calm     87 % 0.00 in 9.00 W/m2 CLR
07:14 22.5 °F 19.2 °F 30.36 in Calm     87 % 0.00 in 11.00 W/m2 CLR
07:19 22.5 °F 19.5 °F 30.37 in Calm     88 % 0.00 in 11.00 W/m2 CLR
07:24 22.4 °F 19.4 °F 30.37 in Calm     88 % 0.00 in 16.00 W/m2 CLR
07:29 22.4 °F 19.4 °F 30.37 in Calm     88 % 0.00 in 16.00 W/m2 CLR
07:34 22.4 °F 19.4 °F 30.37 in Calm     88 % 0.00 in 18.00 W/m2 CLR
07:39 22.6 °F 19.6 °F 30.37 in Calm     88 % 0.00 in 33.00 W/m2 CLR
07:44 22.7 °F 19.7 °F 30.37 in Calm     88 % 0.00 in 32.00 W/m2 CLR
07:49 22.8 °F 19.8 °F 30.37 in Calm     88 % 0.00 in 35.00 W/m2 CLR
07:54 23.0 °F 20.0 °F 30.38 in Calm     88 % 0.00 in 30.00 W/m2 CLR
07:59 23.2 °F 20.2 °F 30.38 in Calm     88 % 0.00 in 35.00 W/m2 CLR
08:04 23.5 °F 20.5 °F 30.37 in Calm     88 % 0.00 in 33.00 W/m2 SCT
08:09 23.8 °F 20.5 °F 30.37 in Calm     87 % 0.00 in 40.00 W/m2 SCT
08:14 24.2 °F 20.9 °F 30.37 in Calm     87 % 0.00 in 54.00 W/m2 SCT
08:19 24.7 °F 21.4 °F 30.37 in Calm     87 % 0.00 in 44.00 W/m2 SCT
08:24 25.2 °F 21.6 °F 30.37 in Calm     86 % 0.00 in 160.00 W/m2 SCT
08:29 25.8 °F 21.9 °F 30.38 in Calm     85 % 0.00 in 107.00 W/m2 SCT
08:34 26.4 °F 22.2 °F 30.38 in NNE 3.5 mph 1.2 mph 84 % 0.00 in 95.00 W/m2 SCT
08:39 27.0 °F 22.2 °F 30.38 in NNE 3.5 mph 1.5 mph 82 % 0.00 in 83.00 W/m2 SCT
08:44 27.5 °F 22.4 °F 30.38 in NNE 3.5 mph 1.4 mph 81 % 0.00 in 74.00 W/m2 SCT
08:49 28.0 °F 22.9 °F 30.39 in NNE 2.3 mph 1.3 mph 81 % 0.00 in 69.00 W/m2 SCT
08:54 28.4 °F 23.0 °F 30.39 in North 1.2 mph 0.3 mph 80 % 0.00 in 107.00 W/m2 SCT
08:59 28.9 °F 22.9 °F 30.39 in NNW 3.5 mph 1.9 mph 78 % 0.00 in 135.00 W/m2 SCT
09:04 29.3 °F 23.0 °F 30.39 in NNW 2.3 mph 1.1 mph 77 % 0.00 in 125.00 W/m2 BKN
09:09 29.6 °F 23.0 °F 30.40 in North 1.2 mph 0.4 mph 76 % 0.00 in 137.00 W/m2 BKN
09:14 29.8 °F 22.8 °F 30.40 in North 2.3 mph 1.2 mph 75 % 0.00 in 244.00 W/m2 BKN
09:19 30.2 °F 22.9 °F 30.40 in WNW 3.5 mph 1.9 mph 74 % 0.00 in 121.00 W/m2 BKN
09:24 30.5 °F 23.2 °F 30.40 in WNW 2.3 mph 1.6 mph 74 % 0.00 in 104.00 W/m2 BKN
09:29 30.9 °F 22.9 °F 30.39 in NW 2.3 mph 1.4 mph 72 % 0.00 in 230.00 W/m2 BKN
09:34 31.4 °F 23.1 °F 30.39 in SSE 3.5 mph 1.6 mph 71 % 0.00 in 156.00 W/m2 BKN
09:39 31.8 °F 23.1 °F 30.39 in NNE 3.0 mph 0.6 mph 70 % 0.00 in 209.00 W/m2 BKN
09:44 32.3 °F 23.6 °F 30.38 in NNE 3.5 mph 1.4 mph 70 % 0.00 in 197.00 W/m2 BKN
09:49 32.9 °F 24.2 °F 30.39 in ENE 2.3 mph 1.3 mph 70 % 0.00 in 334.00 W/m2 BKN
09:54 33.5 °F 24.1 °F 30.39 in ENE 3.5 mph 2.0 mph 68 % 0.00 in 265.00 W/m2 BKN
09:59 34.0 °F 23.8 °F 30.39 in NE 3.5 mph 2.5 mph 66 % 0.00 in 192.00 W/m2 BKN
10:04 34.3 °F 24.1 °F 30.39 in Calm     66 % 0.00 in 153.00 W/m2 BKN
10:09 34.5 °F 24.3 °F 30.39 in WNW 3.5 mph 1.5 mph 66 % 0.00 in 279.00 W/m2 BKN
10:14 35.0 °F 24.4 °F 30.38 in WNW 3.5 mph 1.2 mph 65 % 0.00 in 267.00 W/m2 BKN
10:19 35.5 °F 24.1 °F 30.38 in ESE 2.3 mph 0.6 mph 63 % 0.00 in 276.00 W/m2 BKN
10:24 36.1 °F 24.7 °F 30.37 in North 3.5 mph 2.1 mph 63 % 0.00 in 429.00 W/m2 BKN
10:29 36.8 °F 25.0 °F 30.37 in WNW 3.5 mph 2.1 mph 62 % 0.00 in 327.00 W/m2 BKN
10:34 37.3 °F 24.7 °F 30.37 in West 2.3 mph 0.9 mph 60 % 0.00 in 188.00 W/m2 BKN
10:39 37.7 °F 24.6 °F 30.36 in NE 2.3 mph 1.1 mph 59 % 0.00 in 294.00 W/m2 BKN
10:44 38.1 °F 24.6 °F 30.36 in NNW 3.5 mph 2.9 mph 58 % 0.00 in 244.00 W/m2 BKN
10:49 38.4 °F 24.5 °F 30.36 in NNW 1.2 mph 0.2 mph 57 % 0.00 in 163.00 W/m2 BKN
10:54 38.5 °F 23.7 °F 30.35 in North 3.5 mph 1.7 mph 55 % 0.00 in 172.00 W/m2 BKN
10:59 38.6 °F 23.8 °F 30.35 in NW 1.2 mph   55 % 0.00 in 204.00 W/m2 BKN
11:05 38.8 °F 23.6 °F 30.35 in North 3.5 mph 1.1 mph 54 % 0.00 in 227.00 W/m2 OVC
11:09 38.9 °F 24.1 °F 30.34 in ESE 2.3 mph 1.2 mph 55 % 0.00 in 202.00 W/m2 OVC
11:14 39.1 °F 23.8 °F 30.34 in North 1.2 mph 1.0 mph 54 % 0.00 in 195.00 W/m2 OVC
11:19 39.3 °F 23.6 °F 30.34 in NNW 3.5 mph 2.0 mph 53 % 0.00 in 192.00 W/m2 OVC
11:24 39.5 °F 24.2 °F 30.33 in NNW 2.0 mph 1.1 mph 54 % 0.00 in 174.00 W/m2 OVC
11:29 39.7 °F 24.0 °F 30.33 in NW 1.2 mph   53 % 0.00 in 178.00 W/m2 OVC
11:34 39.8 °F 24.0 °F 30.33 in Calm     53 % 0.00 in 178.00 W/m2 OVC
11:39 40.0 °F 23.8 °F 30.32 in North 3.5 mph 1.6 mph 52 % 0.00 in 165.00 W/m2 OVC
11:44 40.1 °F 23.9 °F 30.32 in North 2.3 mph 1.3 mph 52 % 0.00 in 288.00 W/m2 OVC
11:49 40.3 °F 24.1 °F 30.32 in SE 2.3 mph 1.8 mph 52 % 0.00 in 371.00 W/m2 OVC
11:54 40.5 °F 23.8 °F 30.31 in SE 2.3 mph 0.8 mph 51 % 0.00 in 186.00 W/m2 OVC
11:59 40.8 °F 23.6 °F 30.31 in SE 2.3 mph 1.2 mph 50 % 0.00 in 169.00 W/m2 OVC
12:04 41.0 °F 23.8 °F 30.31 in NNE 3.5 mph 1.4 mph 50 % 0.00 in 200.00 W/m2 SCT
12:09 41.2 °F 23.9 °F 30.31 in North 2.3 mph 0.7 mph 50 % 0.00 in 325.00 W/m2 SCT
12:14 41.7 °F 23.9 °F 30.30 in NE 3.0 mph 2.4 mph 49 % 0.00 in 279.00 W/m2 SCT
12:19 42.4 °F 25.1 °F 30.30 in NNE 2.3 mph 1.4 mph 50 % 0.00 in 659.00 W/m2 SCT
12:24 42.9 °F 24.5 °F 30.30 in NW 3.5 mph 1.8 mph 48 % 0.00 in 485.00 W/m2 SCT
12:29 43.5 °F 24.6 °F 30.30 in NE 3.5 mph 2.0 mph 47 % 0.00 in 596.00 W/m2 SCT
12:34 44.0 °F 25.5 °F 30.29 in ESE 3.5 mph 1.0 mph 48 % 0.00 in 606.00 W/m2 SCT
12:39 44.6 °F 25.6 °F 30.29 in SE 1.2 mph 0.8 mph 47 % 0.00 in 613.00 W/m2 SCT
12:44 45.4 °F 25.8 °F 30.29 in NW 3.5 mph 1.4 mph 46 % 0.00 in 547.00 W/m2 SCT
12:49 46.0 °F 25.8 °F 30.29 in North 3.5 mph 0.5 mph 45 % 0.00 in 457.00 W/m2 SCT
12:54 46.0 °F 25.8 °F 30.29 in WNW 2.3 mph 1.4 mph 45 % 0.00 in 338.00 W/m2 SCT
12:59 46.1 °F 25.4 °F 30.29 in WNW 2.3 mph 0.2 mph 44 % 0.00 in 178.00 W/m2 SCT
13:04 46.1 °F 25.9 °F 30.29 in Calm     45 % 0.00 in 121.00 W/m2 BKN
13:09 46.1 °F 25.9 °F 30.29 in Calm     45 % 0.00 in 102.00 W/m2 BKN
13:14 46.1 °F 25.4 °F 30.29 in WNW 1.2 mph 0.9 mph 44 % 0.00 in 142.00 W/m2 BKN
13:19 46.0 °F 25.3 °F 30.29 in WNW 1.2 mph   44 % 0.00 in 179.00 W/m2 BKN
13:24 46.0 °F 25.8 °F 30.28 in Calm     45 % 0.00 in 200.00 W/m2 BKN
13:29 46.0 °F 25.3 °F 30.28 in ESE 3.5 mph 1.6 mph 44 % 0.00 in 227.00 W/m2 BKN
13:34 46.0 °F 25.3 °F 30.27 in Calm     44 % 0.00 in 176.00 W/m2 BKN
13:39 46.1 °F 25.9 °F 30.27 in SE 2.3 mph   45 % 0.00 in 153.00 W/m2 BKN
13:44 46.2 °F 25.5 °F 30.28 in SE 1.2 mph 0.2 mph 44 % 0.00 in 114.00 W/m2 BKN
13:49 46.3 °F 25.6 °F 30.27 in Calm     44 % 0.00 in 107.00 W/m2 BKN
13:54 46.2 °F 25.5 °F 30.27 in Calm     44 % 0.00 in 104.00 W/m2 BKN
13:59 46.2 °F 25.5 °F 30.27 in Calm     44 % 0.00 in 114.00 W/m2 BKN
14:05 46.3 °F 26.1 °F 30.26 in Calm     45 % 0.00 in 123.00 W/m2 OVC
14:09 46.3 °F 26.6 °F 30.26 in Calm     46 % 0.00 in 116.00 W/m2 OVC
14:14 46.2 °F 26.5 °F 30.26 in Calm     46 % 0.00 in 109.00 W/m2 OVC
14:19 46.1 °F 26.4 °F 30.26 in Calm     46 % 0.00 in 95.00 W/m2 OVC
14:24 46.0 °F 26.4 °F 30.27 in Calm     46 % 0.00 in 83.00 W/m2 OVC
14:29 46.0 °F 26.9 °F 30.27 in Calm     47 % 0.00 in 65.00 W/m2 OVC
14:34 45.8 °F 26.7 °F 30.27 in Calm     47 % 0.00 in 69.00 W/m2 OVC
14:39 45.6 °F 26.5 °F 30.27 in Calm     47 % 0.00 in 62.00 W/m2 OVC
14:44 45.5 °F 26.4 °F 30.27 in Calm     47 % 0.00 in 46.00 W/m2 OVC
14:49 45.2 °F 26.1 °F 30.27 in Calm     47 % 0.00 in 53.00 W/m2 OVC
14:54 45.1 °F 26.6 °F 30.26 in Calm     48 % 0.00 in 69.00 W/m2 OVC
14:59 45.1 °F 26.6 °F 30.25 in Calm     48 % 0.00 in 100.00 W/m2 OVC
15:04 45.1 °F 26.6 °F 30.25 in Calm     48 % 0.00 in 105.00 W/m2 OVC
15:09 45.1 °F 26.1 °F 30.25 in Calm     47 % 0.00 in 88.00 W/m2 OVC
15:14 45.2 °F 26.7 °F 30.25 in Calm     48 % 0.00 in 104.00 W/m2 OVC
15:20 45.2 °F 26.7 °F 30.25 in Calm     48 % 0.00 in 84.00 W/m2 OVC
15:24 45.3 °F 26.2 °F 30.26 in West 3.5 mph 1.4 mph 47 % 0.00 in 56.00 W/m2 OVC
15:29 45.2 °F 26.7 °F 30.26 in West 2.3 mph 1.2 mph 48 % 0.00 in 39.00 W/m2 OVC
15:34 45.2 °F 26.7 °F 30.26 in West 2.3 mph 1.8 mph 48 % 0.00 in 33.00 W/m2 OVC
15:39 45.1 °F 26.1 °F 30.26 in West 2.3 mph 1.5 mph 47 % 0.00 in 30.00 W/m2 OVC
15:44 45.0 °F 26.5 °F 30.27 in West 2.3 mph 1.6 mph 48 % 0.00 in 30.00 W/m2 OVC
15:49 44.9 °F 26.9 °F 30.27 in West 3.5 mph 1.9 mph 49 % 0.00 in 21.00 W/m2 OVC
15:54 44.7 °F 26.7 °F 30.26 in WNW 2.3 mph 1.3 mph 49 % 0.00 in 18.00 W/m2 OVC
15:59 44.5 °F 27.0 °F 30.27 in WNW 2.3 mph 1.8 mph 50 % 0.00 in 14.00 W/m2 OVC
16:04 44.4 °F 27.4 °F 30.27 in WNW 2.3 mph 1.2 mph 51 % 0.00 in 11.00 W/m2 OVC
16:09 44.2 °F 27.2 °F 30.27 in WNW 2.3 mph 1.1 mph 51 % 0.00 in 9.00 W/m2 OVC
16:14 44.1 °F 27.1 °F 30.26 in WNW 2.3 mph 0.6 mph 51 % 0.00 in 9.00 W/m2 OVC
16:19 44.0 °F 27.5 °F 30.27 in Calm     52 % 0.00 in 9.00 W/m2 OVC
16:24 43.8 °F 26.8 °F 30.27 in Calm     51 % 0.00 in 9.00 W/m2 OVC
16:29 43.6 °F 27.1 °F 30.27 in Calm     52 % 0.00 in 11.00 W/m2 OVC
16:34 43.6 °F 27.6 °F 30.27 in Calm     53 % 0.00 in 9.00 W/m2 OVC
16:39 43.5 °F 27.5 °F 30.26 in Calm     53 % 0.00 in 5.00 W/m2 OVC
16:44 43.4 °F 27.4 °F 30.26 in Calm     53 % 0.00 in 0.00 W/m2 OVC
16:49 43.3 °F 27.3 °F 30.26 in Calm     53 % 0.00 in 0.00 W/m2 OVC
16:54 43.2 °F 27.2 °F 30.25 in Calm     53 % 0.00 in 0.00 W/m2 OVC
16:59 43.0 °F 27.0 °F 30.25 in Calm     53 % 0.00 in 0.00 W/m2 OVC
17:05 42.9 °F 26.9 °F 30.25 in Calm     53 % 0.00 in 0.00 W/m2 OVC
17:09 42.9 °F 26.9 °F 30.26 in Calm     53 % 0.00 in 0.00 W/m2 OVC
17:14 42.8 °F 27.7 °F 30.26 in Calm     55 % 0.00 in 0.00 W/m2 OVC
17:19 42.7 °F 27.2 °F 30.27 in Calm     54 % 0.00 in 0.00 W/m2 OVC
17:24 42.7 °F 27.2 °F 30.27 in Calm     54 % 0.00 in 0.00 W/m2 OVC
17:29 42.7 °F 27.2 °F 30.27 in Calm     54 % 0.00 in 0.00 W/m2 OVC
17:34 42.6 °F 26.6 °F 30.27 in Calm     53 % 0.00 in 0.00 W/m2 OVC
17:39 42.5 °F 26.6 °F 30.27 in Calm     53 % 0.00 in 0.00 W/m2 OVC
17:44 42.5 °F 27.0 °F 30.27 in Calm     54 % 0.00 in 0.00 W/m2 OVC
17:49 42.5 °F 27.5 °F 30.28 in Calm     55 % 0.00 in 0.00 W/m2 OVC
17:54 42.4 °F 26.9 °F 30.29 in Calm     54 % 0.00 in 0.00 W/m2 OVC
17:59 42.3 °F 27.7 °F 30.29 in Calm     56 % 0.00 in 0.00 W/m2 OVC
18:04 42.2 °F 27.6 °F 30.29 in Calm     56 % 0.00 in 0.00 W/m2 OVC
18:09 42.0 °F 27.4 °F 30.28 in Calm     56 % 0.00 in 0.00 W/m2 OVC
18:14 41.8 °F 27.2 °F 30.28 in Calm     56 % 0.00 in 0.00 W/m2 OVC
18:19 41.7 °F 27.1 °F 30.28 in Calm     56 % 0.00 in 0.00 W/m2 OVC
18:24 41.6 °F 27.1 °F 30.28 in Calm     56 % 0.00 in 0.00 W/m2 OVC
18:29 41.6 °F 26.6 °F 30.28 in Calm     55 % 0.00 in 0.00 W/m2 OVC
18:34 41.5 °F 27.0 °F 30.28 in Calm     56 % 0.00 in 0.00 W/m2 OVC
18:39 41.6 °F 27.1 °F 30.28 in Calm     56 % 0.00 in 0.00 W/m2 OVC
18:44 41.5 °F 27.0 °F 30.28 in Calm     56 % 0.00 in 0.00 W/m2 OVC
18:49 41.5 °F 26.5 °F 30.28 in Calm     55 % 0.00 in 0.00 W/m2 OVC
18:54 41.6 °F 27.1 °F 30.28 in Calm     56 % 0.00 in 0.00 W/m2 OVC
18:59 41.5 °F 26.5 °F 30.28 in Calm     55 % 0.00 in 0.00 W/m2 OVC
19:04 41.5 °F 26.5 °F 30.29 in Calm     55 % 0.00 in 0.00 W/m2 OVC
19:09 41.5 °F 26.5 °F 30.29 in Calm     55 % 0.00 in 0.00 W/m2 OVC
19:14 41.4 °F 27.3 °F 30.29 in Calm     57 % 0.00 in 0.00 W/m2 OVC
19:19 41.3 °F 25.9 °F 30.29 in Calm     54 % 0.00 in 0.00 W/m2 OVC
19:24 41.3 °F 26.3 °F 30.30 in Calm     55 % 0.00 in 0.00 W/m2 OVC
19:29 41.4 °F 26.9 °F 30.30 in Calm     56 % 0.00 in 0.00 W/m2 OVC
19:34 41.4 °F 26.4 °F 30.31 in Calm     55 % 0.00 in 0.00 W/m2 OVC
19:39 41.4 °F 26.9 °F 30.31 in Calm     56 % 0.00 in 0.00 W/m2 OVC
19:44 41.4 °F 26.4 °F 30.31 in Calm     55 % 0.00 in 0.00 W/m2 OVC
19:49 41.4 °F 26.9 °F 30.32 in Calm     56 % 0.00 in 0.00 W/m2 OVC
19:54 41.4 °F 26.9 °F 30.32 in Calm     56 % 0.00 in 0.00 W/m2 OVC
19:59 41.3 °F 27.2 °F 30.32 in Calm     57 % 0.00 in 0.00 W/m2 OVC
20:04 41.3 °F 27.2 °F 30.32 in Calm     57 % 0.00 in 0.00 W/m2 OVC
20:09 41.2 °F 26.7 °F 30.32 in Calm     56 % 0.00 in 0.00 W/m2 OVC
20:14 41.2 °F 27.1 °F 30.32 in Calm     57 % 0.00 in 0.00 W/m2 OVC
20:19 41.2 °F 27.1 °F 30.33 in Calm     57 % 0.00 in 0.00 W/m2 OVC
20:24 41.1 °F 27.0 °F 30.33 in Calm     57 % 0.00 in 0.00 W/m2 OVC
20:29 41.1 °F 27.0 °F 30.33 in Calm     57 % 0.00 in 0.00 W/m2 OVC
20:34 41.0 °F 26.9 °F 30.33 in Calm     57 % 0.00 in 0.00 W/m2 OVC
20:39 40.9 °F 26.8 °F 30.33 in Calm     57 % 0.00 in 0.00 W/m2 OVC
20:44 40.9 °F 27.2 °F 30.33 in Calm     58 % 0.00 in 0.00 W/m2 OVC
20:49 40.7 °F 27.1 °F 30.33 in Calm     58 % 0.00 in 0.00 W/m2 OVC
20:54 40.6 °F 27.4 °F 30.33 in Calm     59 % 0.00 in 0.00 W/m2 OVC
20:59 40.5 °F 26.9 °F 30.33 in Calm     58 % 0.00 in 0.00 W/m2 OVC
21:04 40.5 °F 26.9 °F 30.33 in Calm     58 % 0.00 in 0.00 W/m2 OVC
21:09 40.4 °F 26.8 °F 30.32 in Calm     58 % 0.00 in 0.00 W/m2 OVC
21:14 40.3 °F 27.1 °F 30.32 in Calm     59 % 0.00 in 0.00 W/m2 OVC
21:19 40.2 °F 27.0 °F 30.32 in Calm     59 % 0.00 in 0.00 W/m2 OVC
21:24 40.2 °F 27.0 °F 30.31 in Calm     59 % 0.00 in 0.00 W/m2 OVC
21:29 40.1 °F 27.3 °F 30.32 in Calm     60 % 0.00 in 0.00 W/m2 OVC
21:34 40.1 °F 27.3 °F 30.31 in Calm     60 % 0.00 in 0.00 W/m2 OVC
21:39 40.1 °F 27.3 °F 30.31 in Calm     60 % 0.00 in 0.00 W/m2 OVC
21:44 40.0 °F 27.2 °F 30.31 in Calm     60 % 0.00 in 0.00 W/m2 OVC
21:49 40.0 °F 27.6 °F 30.31 in Calm     61 % 0.00 in 0.00 W/m2 OVC
21:54 40.0 °F 27.6 °F 30.31 in Calm     61 % 0.00 in 0.00 W/m2 OVC
21:59 40.0 °F 27.2 °F 30.30 in Calm     60 % 0.00 in 0.00 W/m2 OVC
22:04 40.0 °F 27.2 °F 30.30 in Calm     60 % 0.00 in 0.00 W/m2 -RA
22:09 40.1 °F 28.5 °F 30.30 in Calm     63 % 0.00 in 0.00 W/m2 -RA
22:14 40.0 °F 28.8 °F 30.29 in Calm     64 % 0.00 in 0.00 W/m2 -RA
22:19 39.9 °F 29.1 °F 30.29 in Calm     65 % 0.00 in 0.00 W/m2 -RA
22:24 39.7 °F 29.6 °F 30.29 in Calm     67 % 0.00 in 0.00 W/m2 -RA
22:29 39.5 °F 29.4 °F 30.29 in SE 2.3 mph 2.0 mph 67 % 0.00 in 0.00 W/m2 -RA
22:34 39.3 °F 29.6 °F 30.29 in SE 3.5 mph 2.3 mph 68 % 0.00 in 0.00 W/m2 -RA
22:39 39.1 °F 29.8 °F 30.29 in SE 3.5 mph 1.8 mph 69 % 0.00 in 0.00 W/m2 -RA
22:44 38.8 °F 29.8 °F 30.28 in SE 3.5 mph 2.7 mph 70 % 0.00 in 0.00 W/m2 -RA
22:49 38.7 °F 29.8 °F 30.28 in SE 3.5 mph 2.1 mph 70 % 0.00 in 0.00 W/m2 -RA
22:54 38.5 °F 29.9 °F 30.28 in SE 3.5 mph 2.3 mph 71 % 0.00 in 0.00 W/m2 -RA
22:59 38.4 °F 30.2 °F 30.28 in SE 3.5 mph 2.9 mph 72 % 0.00 in 0.00 W/m2 -RA
23:04 38.2 °F 30.3 °F 30.28 in ESE 3.5 mph 2.5 mph 73 % 0.01 in 0.00 W/m2 -RA
23:09 38.1 °F 30.5 °F 30.27 in ESE 3.5 mph 2.5 mph 74 % 0.01 in 0.00 W/m2 -RA
23:14 37.9 °F 31.0 °F 30.27 in ESE 3.5 mph 2.2 mph 76 % 0.01 in 0.00 W/m2 -RA
23:19 37.8 °F 31.2 °F 30.26 in East 3.5 mph 3.0 mph 77 % 0.01 in 0.00 W/m2 -RA
23:24 37.7 °F 31.5 °F 30.26 in ESE 3.5 mph 2.8 mph 78 % 0.01 in 0.00 W/m2 -RA
23:29 37.6 °F 31.4 °F 30.26 in ESE 3.5 mph 2.7 mph 78 % 0.01 in 0.00 W/m2 -RA
23:34 37.5 °F 31.6 °F 30.25 in ESE 4.0 mph 3.3 mph 79 % 0.02 in 0.00 W/m2 -RA
23:39 37.5 °F 31.6 °F 30.25 in ESE 3.5 mph 2.9 mph 79 % 0.02 in 0.00 W/m2 -RA
23:44 37.4 °F 32.1 °F 30.25 in ESE 3.5 mph 2.8 mph 81 % 0.02 in 0.00 W/m2 -RA
23:49 37.4 °F 32.1 °F 30.24 in East 3.5 mph 2.0 mph 81 % 0.02 in 0.00 W/m2 -RA
23:54 37.4 °F 32.1 °F 30.24 in ESE 3.5 mph 2.2 mph 81 % 0.02 in 0.00 W/m2 -RA
23:59 37.5 °F 32.2 °F 30.23 in ESE 3.5 mph 2.9 mph 81 % 0.02 in 0.00 W/m2 -RA
Murfreesboro Weather Live
Compliments of Weather Underground - 2.25 mb